EW8956 Weather Reports


Display with metric or nautical units.
time (UTC)temp
F
wind
direction
speed
MPH
gust
MPH
rain 1hr
in
rain 24hr
in
rain mn
in
humidity
%
barometer
mb
20260505194549 80 177 3.0 13.0 0.00 0.00 0.00 32 1014.8
20260505193049 79 134 4.0 14.0 0.00 0.00 0.00 35 1015.0
20260505191550 79 169 5.0 13.0 0.00 0.00 0.00 34 1015.1
20260505190043 79 261 2.0 11.0 0.00 0.00 0.00 34 1015.3
20260505184550 78 151 3.0 15.0 0.00 0.00 0.00 36 1015.7
20260505183050 78 209 5.0 24.0 0.00 0.00 0.00 35 1015.8
20260505181551 77 146 3.0 15.0 0.00 0.00 0.00 35 1016.0
20260505180056 78 216 4.0 10.0 0.00 0.00 0.00 35 1016.3
20260505174551 76 246 3.0 17.0 0.00 0.00 0.00 38 1016.2
20260505173057 76 225 5.0 13.0 0.00 0.00 0.00 37 1016.3
20260505171559 77 97 2.0 12.0 0.00 0.00 0.00 38 1016.3
20260505170055 77 190 2.0 9.0 0.00 0.00 0.00 37 1016.6
20260505164551 76 186 3.0 17.0 0.00 0.00 0.00 37 1016.7
20260505163051 77 167 1.0 11.0 0.00 0.00 0.00 38 1016.8
20260505161553 76 86 3.0 9.0 0.00 0.00 0.00 37 1016.8
20260505153053 75 208 2.0 10.0 0.00 0.00 0.00 43 1017.2
20260505151551 73 211 2.0 8.0 0.00 0.00 0.00 46 1017.3
20260505124551 62 0 1.0 7.0 0.00 0.00 0.00 66 1017.1
20260505123054 61 212 1.0 10.0 0.00 0.00 0.00 68 1016.9
20260505121549 60 0 1.0 13.0 0.00 0.00 0.00 70 1017.0
20260505120106 59 209 0.0 9.0 0.00 0.00 0.00 71 1016.9
20260505114547 58 161 1.0 9.0 0.00 0.00 0.00 72 1017.0
20260505113057 56 0 0.0 5.0 0.00 0.00 0.00 74 1016.8
20260505111545 55 0 0.0 2.0 0.00 0.00 0.00 76 1016.7
20260505101557 55 0 0.0 2.0 0.00 0.00 0.00 74 1016.5
20260505100046 55 0 0.0 3.0 0.00 0.00 0.00 73 1016.4
20260505094558 55 0 0.0 1.0 0.00 0.00 0.00 73 1016.4
20260505093053 55 0 0.0 1.0 0.00 0.00 0.00 71 1016.3
20260505091550 55 0 0.0 0.0 0.00 0.00 0.00 71 1016.3
20260505090056 56 0 0.0 1.0 0.00 0.00 0.00 70 1016.1
20260505084548 57 0 0.0 1.0 0.00 0.00 0.00 68 1015.8
20260505083103 57 0 0.0 1.0 0.00 0.00 0.00 66 1015.7
20260505081551 58 0 0.0 3.0 0.00 0.00 0.00 65 1015.6
20260505080051 59 0 0.0 6.0 0.00 0.00 0.00 63 1015.5
20260505074548 59 0 0.0 5.0 0.00 0.00 0.00 62 1015.4
20260505073049 60 0 0.0 5.0 0.00 0.00 0.00 61 1015.3
20260505071545 60 0 0.0 8.0 0.00 0.00 0.00 60 1015.4
20260505070059 60 0 1.0 8.0 0.00 0.00 0.00 58 1015.1
20260505064550 61 266 2.0 8.0 0.00 0.00 0.00 56 1015.2
20260505063046 61 0 2.0 9.0 0.00 0.00 0.00 54 1015.3
20260505061611 62 0 1.0 7.0 0.00 0.00 0.00 52 1015.2
20260505060052 62 213 0.0 5.0 0.00 0.00 0.00 50 1015.1
20260505054548 62 200 1.0 7.0 0.00 0.00 0.00 49 1015.2
20260505053054 63 167 0.0 5.0 0.00 0.00 0.00 47 1015.3
20260505051543 64 124 0.0 5.0 0.00 0.00 0.00 45 1015.3
20260505041548 66 229 0.0 4.0 0.00 0.00 0.00 40 1015.3
20260505034550 66 223 0.0 4.0 0.00 0.00 0.00 37 1015.3
20260505033100 66 0 0.0 4.0 0.00 0.00 0.00 36 1015.4
20260505031555 67 105 1.0 6.0 0.00 0.00 0.00 36 1015.5
20260505030055 68 0 0.0 6.0 0.00 0.00 0.00 35 1015.4
20260505024552 68 199 0.0 4.0 0.00 0.00 0.00 34 1015.4
20260505023054 69 213 2.0 9.0 0.00 0.00 0.00 33 1015.3
20260505021553 69 244 2.0 8.0 0.00 0.00 0.00 33 1015.1
20260505020046 69 0 0.0 8.0 0.00 0.00 0.00 33 1015.1
20260505014549 70 0 0.0 4.0 0.00 0.00 0.00 33 1015.0
20260505013050 70 220 1.0 5.0 0.00 0.00 0.00 32 1014.9
20260505011551 71 0 0.0 10.0 0.00 0.00 0.00 32 1014.6
20260505010104 71 0 0.0 4.0 0.00 0.00 0.00 32 1014.4
20260505004552 71 0 0.0 3.0 0.00 0.00 0.00 32 1014.3
20260505003045 72 0 0.0 3.0 0.00 0.00 0.00 32 1014.2
20260505001551 73 209 0.0 6.0 0.00 0.00 0.00 32 1014.1
20260505000101 73 224 0.0 6.0 0.00 0.00 0.00 31 1014.1
20260504234552 74 213 1.0 5.0 0.00 0.00 0.00 31 1013.9
20260504233049 75 205 0.0 4.0 0.00 0.00 0.00 32 1013.7
20260504231547 75 259 2.0 10.0 0.00 0.00 0.00 31 1013.7
20260504230044 75 115 1.0 9.0 0.00 0.00 0.00 32 1013.6
20260504224554 76 209 2.0 7.0 0.00 0.00 0.00 32 1013.7
20260504223052 76 248 1.0 7.0 0.00 0.00 0.00 31 1013.8
20260504221549 76 226 3.0 11.0 0.00 0.00 0.00 31 1013.8
20260504220056 76 250 1.0 10.0 0.00 0.00 0.00 31 1013.8
20260504214544 77 221 4.0 11.0 0.00 0.00 0.00 31 1014.0
20260504213101 77 193 1.0 10.0 0.00 0.00 0.00 32 1013.8
20260504211544 77 216 2.0 9.0 0.00 0.00 0.00 32 1013.8
20260504210043 78 207 3.0 11.0 0.00 0.00 0.00 32 1013.8
20260504204545 79 0 0.0 6.0 0.00 0.00 0.00 31 1013.9
20260504203048 78 185 1.0 7.0 0.00 0.00 0.00 32 1014.0
20260504201547 78 200 1.0 7.0 0.00 0.00 0.00 32 1014.1
20260504200053 78 254 0.0 7.0 0.00 0.00 0.00 33 1014.3